When you browse on this site, cookies collect data to enhance your experience and personalize the content and advertising you see.
Visit our Privacy Policy to learn more. By continuing to use the site, you agree to this use of cookies and data.
  • en Suisse
  • Liste des pays
  • À 7 jours
  • Température de l'eau
  • Carte météo
  • Widgets météo
  • user-avatar
    Se connecter

    Météo par heure à Wakefield

    Ce jour, 19 Septembre, Jeudi

    Heure Température Précipitation Vent Pression Humidité
    00:00 +12°C° 0 mm 1 m/s 766 mmHg 85%
    01:00 +11°C° 0 mm 0 m/s 766 mmHg 85%
    02:00 +11°C° 0 mm 0 m/s 766 mmHg 86%
    03:00 +11°C° 0 mm 0 m/s 766 mmHg 86%
    04:00 +11°C° 0 mm 0 m/s 766 mmHg 86%
    05:00 +11°C° 0 mm 0 m/s 766 mmHg 86%
    06:00 +11°C° 0 mm 0 m/s 766 mmHg 86%
    07:00 +13°C° 0 mm 1 m/s 766 mmHg 80%
    08:00 +15°C° 0 mm 1 m/s 766 mmHg 75%
    09:00 +16°C° 0 mm 1 m/s 767 mmHg 69%
    10:00 +19°C° 0 mm 1 m/s 767 mmHg 64%
    11:00 +20°C° 0 mm 1 m/s 766 mmHg 60%
    12:00 +21°C° 0 mm 1 m/s 766 mmHg 55%
    13:00 +22°C° 0 mm 1 m/s 766 mmHg 55%
    14:00 +21°C° 0 mm 2 m/s 766 mmHg 55%
    15:00 +21°C° 0 mm 2 m/s 766 mmHg 54%
    16:00 +20°C° 0 mm 2 m/s 766 mmHg 60%
    17:00 +20°C° 0 mm 1 m/s 765 mmHg 66%
    18:00 +19°C° 0 mm 1 m/s 765 mmHg 72%
    19:00 +18°C° 0 mm 1 m/s 765 mmHg 75%
    20:00 +16°C° 0 mm 1 m/s 765 mmHg 77%
    21:00 +15°C° 0 mm 1 m/s 765 mmHg 80%
    22:00 +15°C° 0 mm 1 m/s 765 mmHg 81%
    23:00 +15°C° 0 mm 1 m/s 765 mmHg 82%

    Demain, 20 Septembre, Vendredi

    Heure Température Précipitation Vent Pression Humidité
    00:00 +14°C° 0 mm 1 m/s 765 mmHg 82%
    01:00 +14°C° 0 mm 1 m/s 765 mmHg 82%
    02:00 +14°C° 0 mm 1 m/s 764 mmHg 82%
    03:00 +13°C° 0 mm 1 m/s 764 mmHg 82%
    04:00 +13°C° 0 mm 1 m/s 764 mmHg 82%
    05:00 +13°C° 0 mm 1 m/s 763 mmHg 83%
    06:00 +13°C° 0 mm 1 m/s 763 mmHg 83%
    07:00 +14°C° 0 mm 1 m/s 763 mmHg 77%
    08:00 +16°C° 0 mm 1 m/s 763 mmHg 72%
    09:00 +17°C° 0 mm 2 m/s 763 mmHg 66%
    10:00 +18°C° 0 mm 2 m/s 763 mmHg 63%
    11:00 +19°C° 0 mm 3 m/s 762 mmHg 60%
    12:00 +20°C° 0 mm 3 m/s 762 mmHg 57%
    13:00 +20°C° 0 mm 4 m/s 761 mmHg 57%
    14:00 +21°C° 0 mm 4 m/s 761 mmHg 57%
    15:00 +21°C° 0 mm 4 m/s 760 mmHg 57%
    16:00 +20°C° 0 mm 4 m/s 760 mmHg 61%
    17:00 +19°C° 0 mm 4 m/s 759 mmHg 66%
    18:00 +17°C° 0 mm 4 m/s 759 mmHg 70%
    19:00 +17°C° 0 mm 4 m/s 759 mmHg 72%
    20:00 +15°C° 0 mm 4 m/s 759 mmHg 73%
    21:00 +14°C° 0 mm 4 m/s 758 mmHg 75%
    22:00 +13°C° 0 mm 4 m/s 758 mmHg 77%
    23:00 +13°C° 0 mm 4 m/s 757 mmHg 79%

    Après-demain, 21 Septembre, Samedi

    Heure Température Précipitation Vent Pression Humidité
    00:00 +12°C° 0 mm 3 m/s 757 mmHg 81%
    01:00 +12°C° 0 mm 3 m/s 756 mmHg 83%
    02:00 +12°C° 0 mm 3 m/s 756 mmHg 85%
    03:00 +11°C° 0 mm 3 m/s 755 mmHg 86%
    04:00 +11°C° 0 mm 3 m/s 755 mmHg 86%
    05:00 +11°C° 0 mm 3 m/s 754 mmHg 86%
    06:00 +11°C° 0 mm 3 m/s 754 mmHg 86%
    07:00 +12°C° 0 mm 4 m/s 754 mmHg 78%
    08:00 +14°C° 0 mm 5 m/s 753 mmHg 71%
    09:00 +15°C° 0 mm 5 m/s 753 mmHg 64%
    10:00 +16°C° 0 mm 5 m/s 752 mmHg 59%
    11:00 +19°C° 0 mm 6 m/s 752 mmHg 54%
    12:00 +20°C° 0 mm 6 m/s 751 mmHg 49%
    13:00 +20°C° 0 mm 6 m/s 751 mmHg 49%
    14:00 +21°C° 0 mm 5 m/s 750 mmHg 48%
    15:00 +21°C° 0 mm 5 m/s 749 mmHg 48%
    16:00 +20°C° 0 mm 5 m/s 749 mmHg 53%
    17:00 +19°C° 0 mm 4 m/s 748 mmHg 57%
    18:00 +18°C° 0 mm 4 m/s 748 mmHg 62%
    19:00 +17°C° 0 mm 3 m/s 748 mmHg 66%
    20:00 +16°C° 0 mm 3 m/s 748 mmHg 70%
    21:00 +14°C° 0 mm 3 m/s 748 mmHg 74%
    22:00 +15°C° 0 mm 2 m/s 747 mmHg 75%
    23:00 +15°C° 0 mm 2 m/s 747 mmHg 77%

    22 Septembre, Dimanche

    Heure Température Précipitation Vent Pression Humidité
    00:00 +15°C° 0 mm 2 m/s 746 mmHg 78%
    01:00 +15°C° 0.1 mm 2 m/s 746 mmHg 80%
    02:00 +14°C° 0.1 mm 2 m/s 745 mmHg 82%
    03:00 +14°C° 0.1 mm 1 m/s 745 mmHg 84%
    04:00 +15°C° 0 mm 1 m/s 744 mmHg 86%
    05:00 +15°C° 0 mm 1 m/s 744 mmHg 87%
    06:00 +15°C° 0 mm 1 m/s 744 mmHg 88%
    07:00 +15°C° 0.2 mm 1 m/s 744 mmHg 88%
    08:00 +16°C° 0.2 mm 1 m/s 744 mmHg 87%
    09:00 +18°C° 0.2 mm 1 m/s 744 mmHg 87%
    10:00 +18°C° 0.3 mm 1 m/s 744 mmHg 87%
    11:00 +18°C° 0.3 mm 1 m/s 743 mmHg 87%
    12:00 +18°C° 0.3 mm 2 m/s 743 mmHg 87%
    13:00 +17°C° 1.2 mm 2 m/s 743 mmHg 86%
    14:00 +17°C° 1.2 mm 3 m/s 743 mmHg 84%
    15:00 +16°C° 1.2 mm 3 m/s 743 mmHg 82%
    16:00 +16°C° 0 mm 2 m/s 743 mmHg 83%
    17:00 +16°C° 0 mm 2 m/s 743 mmHg 84%
    18:00 +15°C° 0 mm 1 m/s 744 mmHg 84%
    19:00 +15°C° 0 mm 1 m/s 744 mmHg 85%
    20:00 +15°C° 0 mm 1 m/s 744 mmHg 86%
    21:00 +14°C° 0 mm 1 m/s 745 mmHg 87%
    22:00 +14°C° 0 mm 2 m/s 745 mmHg 87%
    23:00 +14°C° 0 mm 2 m/s 745 mmHg 88%

    23 Septembre, Lundi

    Heure Température Précipitation Vent Pression Humidité
    00:00 +13°C° 0 mm 3 m/s 746 mmHg 89%
    01:00 +13°C° 0 mm 3 m/s 746 mmHg 88%
    02:00 +12°C° 0 mm 4 m/s 746 mmHg 87%
    03:00 +12°C° 0 mm 4 m/s 746 mmHg 86%
    04:00 +12°C° 0 mm 4 m/s 747 mmHg 86%
    05:00 +11°C° 0 mm 3 m/s 747 mmHg 87%
    06:00 +11°C° 0 mm 3 m/s 747 mmHg 87%
    07:00 +12°C° 0 mm 3 m/s 747 mmHg 81%
    08:00 +13°C° 0 mm 3 m/s 747 mmHg 76%
    09:00 +15°C° 0 mm 2 m/s 747 mmHg 70%
    10:00 +16°C° 0 mm 3 m/s 747 mmHg 67%
    11:00 +17°C° 0 mm 3 m/s 747 mmHg 64%
    12:00 +17°C° 0 mm 4 m/s 746 mmHg 62%
    13:00 +17°C° 0.3 mm 4 m/s 745 mmHg 68%
    14:00 +15°C° 0.3 mm 4 m/s 745 mmHg 74%
    15:00 +14°C° 0.3 mm 4 m/s 744 mmHg 80%
    16:00 +14°C° 0.7 mm 4 m/s 743 mmHg 84%
    17:00 +13°C° 0.7 mm 4 m/s 742 mmHg 89%
    18:00 +13°C° 0.7 mm 4 m/s 742 mmHg 93%
    19:00 +14°C° 1.1 mm 3 m/s 742 mmHg 94%
    20:00 +14°C° 1.1 mm 3 m/s 742 mmHg 95%
    21:00 +16°C° 1.1 mm 3 m/s 742 mmHg 95%
    22:00 +16°C° 0.1 mm 3 m/s 741 mmHg 94%
    23:00 +15°C° 0.1 mm 4 m/s 741 mmHg 92%

    24 Septembre, Mardi

    Heure Température Précipitation Vent Pression Humidité
    00:00 +15°C° 0.1 mm 4 m/s 741 mmHg 91%
    01:00 +15°C° 0 mm 5 m/s 741 mmHg 89%
    02:00 +15°C° 0 mm 5 m/s 741 mmHg 87%
    03:00 +15°C° 0 mm 5 m/s 741 mmHg 85%
    04:00 +15°C° 0 mm 5 m/s 741 mmHg 84%
    05:00 +15°C° 0 mm 6 m/s 741 mmHg 84%
    06:00 +15°C° 0 mm 6 m/s 742 mmHg 83%
    07:00 +16°C° 0 mm 6 m/s 742 mmHg 80%
    08:00 +16°C° 0 mm 6 m/s 742 mmHg 77%
    09:00 +17°C° 0 mm 6 m/s 742 mmHg 73%
    10:00 +17°C° 0 mm 6 m/s 742 mmHg 74%
    11:00 +17°C° 0 mm 6 m/s 742 mmHg 74%
    12:00 +19°C° 0 mm 5 m/s 741 mmHg 74%
    13:00 +19°C° 0.1 mm 6 m/s 741 mmHg 73%
    14:00 +19°C° 0.1 mm 6 m/s 740 mmHg 72%
    15:00 +20°C° 0.1 mm 6 m/s 739 mmHg 72%
    16:00 +19°C° 0.2 mm 6 m/s 739 mmHg 73%
    17:00 +17°C° 0.2 mm 6 m/s 739 mmHg 74%
    18:00 +16°C° 0.2 mm 5 m/s 739 mmHg 75%
    19:00 +16°C° 0 mm 6 m/s 739 mmHg 76%
    20:00 +15°C° 0 mm 6 m/s 739 mmHg 78%
    21:00 +14°C° 0 mm 6 m/s 740 mmHg 79%
    22:00 +14°C° 0 mm 6 m/s 740 mmHg 80%
    23:00 +13°C° 0 mm 5 m/s 739 mmHg 81%
    Voir plus